DW5096 Weather Reports


Display with metric or nautical units.
time (UTC)temp
F
wind
direction
speed
MPH
gust
MPH
rain 1hr
in
rain 24hr
in
rain mn
in
humidity
%
barometer
mb
20260506091132 51 256 2.0 11.0 0.00 0.18 0.00 88 1007.1
20260506085631 51 267 1.0 8.0 0.00 0.18 0.00 88 1007.1
20260506084132 51 254 2.0 9.0 0.00 0.18 0.00 88 1006.8
20260506082632 51 227 1.0 7.0 0.00 0.18 0.00 88 1006.5
20260506081133 51 236 1.0 5.0 0.00 0.18 0.00 88 1006.5
20260506072631 52 273 1.0 7.0 0.00 0.18 0.00 87 1006.1
20260506071128 52 200 2.0 8.0 0.00 0.18 0.00 87 1005.8
20260506061125 53 259 3.0 11.0 0.00 0.18 0.00 81 1005.1
20260506051126 53 202 1.0 6.0 0.00 0.18 0.00 87 1004.7
20260506042620 54 286 2.0 11.0 0.00 0.18 0.00 88 1004.1
20260506035616 54 269 1.0 9.0 0.00 0.18 0.18 90 1003.6
20260506034116 54 244 1.0 8.0 0.00 0.18 0.18 91 1003.9
20260506032616 54 262 2.0 10.0 0.00 0.18 0.18 92 1003.6
20260506031118 54 273 4.0 11.0 0.00 0.18 0.18 93 1003.2
20260506025610 55 257 2.0 10.0 0.00 0.18 0.18 94 1003.0
20260506024109 55 253 0.0 4.0 0.00 0.18 0.18 94 1002.8
20260506021105 56 251 1.0 7.0 0.03 0.18 0.18 95 1002.1
20260506015603 56 236 0.0 4.0 0.03 0.18 0.18 95 1002.2
20260506012602 57 235 0.0 5.0 0.06 0.17 0.17 94 1002.3
20260506011102 57 254 0.0 4.0 0.04 0.15 0.15 94 1002.1
20260506005600 57 257 0.0 4.0 0.04 0.15 0.15 93 1001.6
20260506004100 58 257 0.0 1.0 0.03 0.13 0.13 92 1001.6
20260506002553 58 257 0.0 2.0 0.01 0.11 0.11 92 1001.0
20260506001053 58 257 1.0 6.0 0.01 0.11 0.11 92 1000.7
20260505235553 58 258 0.0 4.0 0.01 0.11 0.11 91 1000.7
20260505234051 59 258 1.0 7.0 0.00 0.10 0.10 90 1000.6
20260505232551 59 257 1.0 7.0 0.00 0.10 0.10 88 1000.4
20260505231051 59 247 1.0 5.0 0.00 0.10 0.10 88 999.9
20260505225553 59 246 1.0 4.0 0.00 0.10 0.10 88 999.9
20260505224051 59 247 1.0 8.0 0.00 0.10 0.10 88 999.4
20260505222552 60 255 2.0 8.0 0.00 0.10 0.10 86 999.2
20260505221051 60 228 1.0 5.0 0.00 0.10 0.10 85 998.8
20260505215552 61 226 1.0 9.0 0.00 0.10 0.10 82 998.7
20260505214052 62 266 4.0 17.0 0.00 0.10 0.10 82 998.2
20260505212552 63 335 9.0 19.0 0.00 0.10 0.10 79 997.8
20260505211051 66 289 8.0 19.0 0.00 0.10 0.10 74 997.7
20260505205552 68 193 5.0 16.0 0.00 0.10 0.10 67 996.1
20260505204054 69 253 6.0 14.0 0.00 0.10 0.10 67 995.9
20260505202551 69 157 5.0 16.0 0.00 0.10 0.10 68 996.1
20260505201051 69 184 5.0 12.0 0.00 0.10 0.10 71 996.1
20260505195551 67 207 4.0 13.0 0.00 0.10 0.10 75 996.2
20260505192552 67 199 2.0 7.0 0.00 0.10 0.10 83 996.9
20260505191052 66 221 1.0 4.0 0.00 0.10 0.10 88 997.0
20260505185552 64 220 1.0 4.0 0.00 0.10 0.10 92 997.4
20260505184049 62 225 0.0 2.0 0.00 0.10 0.10 95 997.5
20260505182549 60 225 0.0 0.0 0.02 0.10 0.10 95 997.8
20260505181049 60 226 0.0 0.0 0.03 0.10 0.10 94 998.0
20260505174051 59 226 0.0 3.0 0.05 0.10 0.10 93 998.1
20260505171050 60 225 1.0 5.0 0.07 0.07 0.07 90 998.3
20260505162545 62 225 0.0 5.0 0.02 0.02 0.02 82 998.9
20260505161046 62 216 0.0 6.0 0.00 0.00 0.00 76 998.8
20260505152545 66 214 2.0 16.0 0.00 0.00 0.00 69 998.8
20260505151043 67 148 2.0 7.0 0.00 0.00 0.00 65 998.7
20260505122540 53 11 2.0 4.0 0.00 0.10 0.00 77 1000.0
20260505121040 52 11 1.0 4.0 0.00 0.10 0.00 80 1000.1
20260505115540 51 11 0.0 3.0 0.00 0.10 0.00 82 1000.3
20260505114040 50 11 1.0 7.0 0.00 0.10 0.00 82 1000.4
20260505111038 49 10 3.0 9.0 0.00 0.10 0.00 84 1000.5
20260505101038 45 5 4.0 10.0 0.00 0.10 0.00 88 1000.2
20260505095539 44 28 4.0 9.0 0.00 0.10 0.00 88 1000.4
20260505094040 44 23 4.0 9.0 0.00 0.10 0.00 89 1000.6
20260505092538 44 24 3.0 6.0 0.00 0.10 0.00 89 1000.6